Ironwood, MI

1:35 AM CDT on April 30, 2017 (GMT -0500)
Gogebic-Iron County

Weather History for KIWD - June, 2014

Change the Weather History Date:

Monday, June 16, 2014

  Actual Average Record
Temperature  
Mean Temperature 70 °F -  
Max Temperature 80 °F 70 °F 89 °F (2006)
Min Temperature 60 °F 49 °F 39 °F (2002)
Cooling Degree Days 5    
Growing Degree Days 20 (Base 50)    
Moisture  
Dew Point 54 °F    
Average Humidity 59    
Maximum Humidity 72    
Minimum Humidity 42    
Precipitation  
Precipitation 0.00 in - - ()
Sea Level Pressure  
Sea Level Pressure 29.81 in    
Wind  
Wind Speed 11 mph (SSW)    
Max Wind Speed 23 mph    
Max Gust Speed 32 mph    
Visibility 10 miles    
Events      
Averages and records for this station are not official NWS values.
T = Trace of Precipitation, MM = Missing Value Source: NWS Daily Summary

Daily Weather History Graph

Daily Weather History Graph

Search for Another Location

Airport or City:

Trip Planner

Search our weather history database for the weather conditions in past years. The results will help you decide how hot, cold, wet, or windy it might be!

Date:

Astronomy

Jun. 16, 2014 Rise Set
Actual Time 5:06 AM CDT 8:55 PM CDT
Civil Twilight 4:27 AM CDT 9:35 PM CDT
Nautical Twilight 3:34 AM CDT 10:28 PM CDT
Astronomical Twilight 2:17 AM CDT 11:45 PM CDT
Moon 11:32 PM CDT (6/16) 9:23 AM CDT (6/16)
Length of Visible Light 17h 07m
Length of Day
15h 48m
Waning Gibbous, 83% of the Moon is Illuminated
Jun 16
Waning Gibbous
Jun 19
Last Quarter
Jun 27
New
Jul 5
First Quarter
Jul 12
Full

Hourly Weather History & Observations

Time (CDT) Temp. Heat Index Dew Point Humidity Pressure Visibility Wind Dir Wind Speed Gust Speed Precip Events Conditions
12:15 AM - - - N/A% 29.77 in 10.0 mi South 11.5 mph 17.3 mph N/A   Partly Cloudy
12:35 AM - - - N/A% 29.78 in 10.0 mi South 12.7 mph 17.3 mph N/A   Scattered Clouds
12:55 AM - - - N/A% 29.77 in 10.0 mi South 12.7 mph 21.9 mph N/A   Scattered Clouds
1:15 AM - - - N/A% 29.77 in 10.0 mi South 12.7 mph 19.6 mph N/A   Scattered Clouds
1:35 AM - - - N/A% 29.77 in 10.0 mi South 13.8 mph 21.9 mph N/A   Partly Cloudy
1:55 AM - - - N/A% 29.78 in 10.0 mi SSW 15.0 mph 20.7 mph N/A   Mostly Cloudy
2:15 AM 64.4 °F - 53.6 °F 68% 29.79 in 10.0 mi SSW 9.2 mph 16.1 mph N/A   Mostly Cloudy
2:35 AM 64.4 °F - 53.6 °F 68% 29.79 in 10.0 mi SW 12.7 mph 17.3 mph N/A   Partly Cloudy
2:55 AM 64.4 °F - 53.6 °F 68% 29.79 in 10.0 mi SSW 10.4 mph 17.3 mph N/A   Clear
3:15 AM 62.6 °F - 53.6 °F 72% 29.80 in 10.0 mi SSW 12.7 mph 18.4 mph N/A   Clear
3:35 AM 62.6 °F - 51.8 °F 68% 29.80 in 10.0 mi SSW 12.7 mph 18.4 mph N/A   Clear
3:55 AM 62.6 °F - 51.8 °F 68% 29.81 in 10.0 mi SW 11.5 mph - N/A   Clear
4:15 AM 62.6 °F - 51.8 °F 68% 29.81 in 10.0 mi SW 8.1 mph - N/A   Clear
4:35 AM 62.6 °F - 51.8 °F 68% 29.82 in 10.0 mi SW 8.1 mph - N/A   Clear
4:55 AM 60.8 °F - 51.8 °F 72% 29.82 in 10.0 mi SW 10.4 mph - N/A   Clear
5:15 AM 60.8 °F - 51.8 °F 72% 29.82 in 10.0 mi SSW 8.1 mph - N/A   Clear
5:35 AM 60.8 °F - 51.8 °F 72% 29.83 in 10.0 mi SW 8.1 mph - N/A   Clear
5:55 AM - - - N/A% 29.83 in 10.0 mi SW 10.4 mph - N/A   Clear
6:15 AM 62.6 °F - 51.8 °F 68% 29.84 in 10.0 mi SW 8.1 mph - N/A   Clear
6:35 AM 62.6 °F - 51.8 °F 68% 29.85 in 10.0 mi SW 9.2 mph 16.1 mph N/A   Clear
6:55 AM 62.6 °F - 51.8 °F 68% 29.85 in 10.0 mi SW 8.1 mph - N/A   Clear
7:15 AM 64.4 °F - 51.8 °F 64% 29.85 in 10.0 mi SW 11.5 mph - N/A   Clear
7:35 AM 66.2 °F - 51.8 °F 60% 29.86 in 10.0 mi SW 10.4 mph - N/A   Scattered Clouds
7:55 AM 66.2 °F - 51.8 °F 60% 29.86 in 10.0 mi SW 10.4 mph - N/A   Mostly Cloudy
8:15 AM 68.0 °F - 51.8 °F 56% 29.86 in 10.0 mi WSW 11.5 mph - N/A   Mostly Cloudy
8:35 AM 69.8 °F - 51.8 °F 53% 29.86 in 10.0 mi SW 11.5 mph - N/A   Scattered Clouds
8:55 AM 69.8 °F - 51.8 °F 53% 29.86 in 10.0 mi SW 6.9 mph - N/A   Clear
9:15 AM - - - N/A% 29.85 in 10.0 mi SW 12.7 mph 17.3 mph N/A   Clear
9:35 AM - - - N/A% 29.85 in 10.0 mi SW 11.5 mph 17.3 mph N/A   Clear
9:55 AM - - - N/A% 29.84 in 10.0 mi WSW 10.4 mph 16.1 mph N/A   Clear
10:35 AM - - - N/A% 29.83 in 10.0 mi SW 11.5 mph 17.3 mph N/A   Clear
10:55 AM - - - N/A% 29.82 in 10.0 mi SW 13.8 mph 17.3 mph N/A   Clear
11:15 AM - - - N/A% 29.82 in 10.0 mi SW 12.7 mph 18.4 mph N/A   Clear
11:35 AM - - - N/A% 29.82 in 10.0 mi SW 17.3 mph 25.3 mph N/A   Clear
11:55 AM - - - N/A% 29.82 in 10.0 mi SW 20.7 mph 27.6 mph N/A   Clear
12:15 PM - - - N/A% 29.82 in 10.0 mi SW 15.0 mph 25.3 mph N/A   Clear
12:35 PM - - - N/A% 29.82 in 10.0 mi SW 19.6 mph 27.6 mph N/A   Partly Cloudy
12:55 PM - - - N/A% 29.82 in 10.0 mi SW 13.8 mph 28.8 mph N/A   Partly Cloudy
1:15 PM - - - N/A% 29.82 in 10.0 mi SW 19.6 mph 27.6 mph N/A   Partly Cloudy
1:35 PM - - - N/A% 29.83 in 10.0 mi SW 19.6 mph 32.2 mph N/A   Clear
1:55 PM - - - N/A% 29.83 in 10.0 mi SW 19.6 mph 28.8 mph N/A   Partly Cloudy
2:15 PM - - - N/A% 29.84 in 10.0 mi SW 23.0 mph 28.8 mph N/A   Partly Cloudy
2:35 PM - - - N/A% 29.84 in 10.0 mi WSW 18.4 mph 25.3 mph N/A   Partly Cloudy
2:55 PM - - - N/A% 29.84 in 10.0 mi WSW 15.0 mph 19.6 mph N/A   Partly Cloudy
3:35 PM 80.6 °F 80.5 °F 55.4 °F 42% 29.84 in 10.0 mi WSW 13.8 mph - N/A   Clear
3:55 PM - - - N/A% 29.85 in 10.0 mi SW 11.5 mph 17.3 mph N/A   Clear
4:15 PM - - - N/A% 29.85 in 10.0 mi SW 10.4 mph - N/A   Scattered Clouds
4:35 PM - - - N/A% 29.84 in 10.0 mi Calm Calm - N/A   Partly Cloudy
4:55 PM 73.4 °F - 59.0 °F 61% 29.84 in 10.0 mi SSE 3.5 mph - N/A   Clear
5:15 PM 75.2 °F - 57.2 °F 53% 29.83 in 10.0 mi SSE 3.5 mph - N/A   Clear
5:35 PM 75.2 °F - 59.0 °F 57% 29.82 in 10.0 mi South 3.5 mph - N/A   Clear
5:55 PM 75.2 °F - 57.2 °F 53% 29.82 in 10.0 mi South 6.9 mph - N/A   Clear
6:15 PM 77.0 °F - 55.4 °F 47% 29.80 in 10.0 mi South 5.8 mph - N/A   Clear
6:35 PM 77.0 °F - 55.4 °F 47% 29.79 in 10.0 mi South 5.8 mph - N/A   Clear
6:55 PM 77.0 °F - 55.4 °F 47% 29.78 in 10.0 mi SSE 3.5 mph - N/A   Clear
7:15 PM 75.2 °F - 55.4 °F 50% 29.78 in 9.0 mi SSE 3.5 mph - N/A   Clear
7:35 PM 75.2 °F - 55.4 °F 50% 29.80 in 10.0 mi South 4.6 mph - N/A   Clear
7:55 PM 73.4 °F - 55.4 °F 53% 29.80 in 10.0 mi South 6.9 mph - N/A   Clear
8:15 PM 73.4 °F - 55.4 °F 53% 29.79 in 10.0 mi SSE 8.1 mph - N/A   Clear
8:35 PM 73.4 °F - 55.4 °F 53% 29.78 in 10.0 mi South 6.9 mph - N/A   Clear
8:55 PM - - - N/A% 29.76 in 10.0 mi SSE 6.9 mph - N/A   Clear
9:15 PM - - - N/A% 29.77 in 10.0 mi South 8.1 mph - N/A   Clear
9:35 PM - - - N/A% 29.76 in 10.0 mi South 13.8 mph 20.7 mph N/A   Partly Cloudy
9:55 PM - - - N/A% 29.77 in 10.0 mi South 10.4 mph 21.9 mph N/A   Scattered Clouds
10:15 PM - - - N/A% 29.76 in 10.0 mi South 12.7 mph 19.6 mph N/A   Clear
10:35 PM - - - N/A% 29.73 in 10.0 mi SSE 9.2 mph 16.1 mph N/A   Clear
10:55 PM - - - N/A% 29.74 in 10.0 mi South 6.9 mph 18.4 mph N/A   Clear
11:15 PM - - - N/A% 29.73 in 10.0 mi SSE 6.9 mph - N/A   Clear
11:35 PM 71.6 °F - 51.8 °F 50% 29.72 in 10.0 mi South 9.2 mph - N/A   Clear
11:55 PM 71.6 °F - 51.8 °F 50% 29.73 in 10.0 mi South 4.6 mph - N/A   Clear